sat.trackr.live / text

‹ back to catalog

STARLINK-31092

NORAD 58628 · 2023-203L

PAYLOAD ACTIVE UNKNOWN

§ Identity

Operator
Country
US
Launch date
2023-12-23
Launch site
AFETR
Launch vehicle
Mass (kg)
RCS (m²)

Purposes: comms

External: N2YO · Heavens-Above · Gunter

§ Orbital elements

Epoch: 2026-05-24T22:30:39.676608Z

Period
94.27 min
Inclination
43.0026°
Eccentricity
0.0001565
Mean motion
15.27589448 rev/d
Perigee alt
481.9 km
Apogee alt
484.1 km
Semi-major
6,861.2 km
B*
9.8124e-5
RAAN
356.3909°
Arg perigee
274.4564°
Mean anomaly
85.6109°
Rev number
13,522

§ Raw data

STARLINK-310921 58628U 23203L   26144.93795922  .00002440  00000+0  98124-4 0  99992 58628  43.0026 356.3909 0001565 274.4564  85.6109 15.27589448135225

JSON: /api/v1/satellites/58628 · /tle

For live sub-satellite position, see the globe view (requires WebGL).

§ Visibility from observer

Set your observer location to see the next 7 days of passes ≥ 10°. The values pass through the URL so the page stays shareable.

No JS? Fill the form by hand. The geolocation button needs JavaScript.